CDT,Max TemperatureF,Mean TemperatureF,Min TemperatureF,Max Dew PointF,MeanDew PointF,Min DewpointF,Max Humidity, Mean Humidity, Min Humidity, Max Sea Level PressureIn, Mean Sea Level PressureIn, Min Sea Level PressureIn, Max VisibilityMiles, Mean VisibilityMiles, Min VisibilityMiles, Max Wind SpeedMPH, Mean Wind SpeedMPH, Max Gust SpeedMPH,PrecipitationIn, CloudCover, Events, WindDirDegrees
2013-6-1,68,59,50,60,53,44,100,82,69,29.98,29.72,29.55,10,10,5,20,5,26,0.01,5,Rain,343
2013-6-2,66,56,45,50,44,41,90,67,40,30.11,30.05,29.99,10,10,10,13,7,17,0.01,2,,336
2013-6-3,67,55,43,49,46,42,99,66,43,30.07,30.04,29.97,10,10,10,8,2,,0.01,3,Rain,104
2013-6-4,61,58,54,57,52,46,97,82,65,30.08,30.04,29.98,10,9,2,12,7,20,0.01,7,Rain,109
2013-6-5,64,58,51,58,54,50,96,90,75,30.06,30.00,29.97,10,8,4,10,6,,0.01,8,Rain-Thunderstorm,102
2013-6-6,59,54,50,53,51,49,99,91,78,30.06,30.03,30.00,10,9,2,9,6,,0.01,8,,23
2013-6-7,64,56,49,55,52,48,96,84,67,30.07,30.01,29.93,10,10,10,4,1,,0.01,8,,24
2013-6-8,70,61,52,57,54,52,99,77,54,29.93,29.91,29.89,10,9,3,9,3,,0.00,4,,126
2013-6-9,63,60,57,60,58,55,97,92,79,29.90,29.83,29.80,10,8,3,17,9,25,0.00,8,Rain,80
2013-6-10,73,66,59,64,61,59,100,89,70,29.88,29.85,29.82,10,7,0,7,2,,0.01,6,Fog,313
2013-6-11,75,64,55,68,63,56,100,91,75,29.92,29.87,29.82,10,7,0,8,1,,0.01,1,Fog-Rain-Thunderstorm,335
2013-6-12,75,66,57,65,58,53,98,77,61,29.98,29.87,29.82,10,9,2,13,5,17,0.00,4,Rain-Thunderstorm,3
2013-6-13,78,66,55,58,55,51,88,67,42,30.13,30.08,29.98,10,10,10,9,6,,0.00,1,,4
2013-6-14,79,67,56,64,59,53,92,70,57,30.09,29.99,29.87,10,10,10,13,6,22,0.01,3,Rain,130
2013-6-15,78,68,57,69,63,55,97,78,52,29.93,29.89,29.86,10,10,7,10,4,20,0.00,3,Rain-Thunderstorm,231
2013-6-16,85,71,57,60,53,48,91,58,28,29.94,29.90,29.86,10,10,10,18,5,34,0.00,1,Rain,260
2013-6-17,79,68,56,60,57,52,92,67,47,30.05,29.95,29.89,10,10,7,13,5,20,0.00,2,,321
2013-6-18,76,63,50,59,54,46,93,72,53,30.12,30.08,30.03,10,10,4,9,5,,0.07,3,Rain,69
2013-6-19,84,72,59,64,60,56,92,67,45,30.06,30.01,29.94,10,10,10,10,3,,0.00,1,,140
2013-6-20,89,80,70,68,64,60,79,62,41,30.01,29.94,29.85,10,10,10,15,5,23,0.00,2,Thunderstorm,160
2013-6-21,80,72,63,69,65,62,97,80,59,30.11,29.91,29.72,10,9,2,25,8,45,1.08,4,Rain-Thunderstorm,107
2013-6-22,79,72,65,69,67,64,97,87,71,30.00,29.92,29.80,10,10,5,21,7,33,0.26,5,Rain-Thunderstorm,98
2013-6-23,81,74,67,70,67,64,98,81,59,29.90,29.79,29.68,10,9,2,17,7,25,0.47,4,Rain-Thunderstorm,205
2013-6-24,81,70,60,72,67,60,100,84,63,29.92,29.87,29.82,10,9,1,10,2,,0.02,0,,151
2013-6-25,85,76,66,74,69,64,94,80,59,29.84,29.78,29.72,10,10,7,9,4,,0.01,1,,135
2013-6-26,86,78,70,74,70,65,99,78,56,29.84,29.74,29.67,10,9,4,15,4,22,0.00,2,Thunderstorm,277
2013-6-27,83,74,66,67,61,55,97,62,38,29.86,29.84,29.82,10,10,10,18,6,28,0.00,0,,286
2013-6-28,77,72,66,66,61,56,89,71,55,29.85,29.83,29.81,10,10,7,22,11,33,0.08,3,Rain,311
2013-6-29,77,69,60,64,60,54,97,75,50,30.03,29.90,29.79,10,10,4,15,9,23,0.25,5,Rain-Thunderstorm,2
2013-6-30,81,68,54,61,56,53,97,68,40,30.15,30.11,30.02,10,10,10,13,4,17,0.00,0,,1